User: anonymous   Login
Location: Le Petit-Vavre
(46.5081°N, 1.5239°E)
Time: 11:38:30
(UTC+00:00)
Language:

Cosmos 1844 Rocket - Orbit

View from above orbital plane
View from above orbital plane
View from above satellite
View from above satellite

Ground track
Ground track

The orbit data is extracted from the following two-line orbital elements,

1 17974U 87041B   21134.11471895 -.00000153  00000-0 -51988-4 0  9991
2 17974  71.0045 143.3594 0013489   5.1496  63.2925 14.17274419758856
Epoch (UTC): 14 May 2021 02:45:11
Eccentricity: 0.0013489
inclination: 71.0045°
perigee height: 825 km
apogee height: 844 km
right ascension of ascending node: 143.3594°
argument of perigee: 5.1496°
revolutions per day: 14.17274419
mean anomaly at epoch: 63.2925°
orbit number at epoch: 75885

The dashed part of the orbit path shows where the satellite is in the earth's shadow,  

DLR